Time,TemperatureF,DewpointF,PressureIn,WindDirection,WindDirectionDegrees,WindSpeedMPH,WindSpeedGustMPH,Humidity,HourlyPrecipIn,Conditions,Clouds,dailyrainin,SoftwareType,DateUTC
2013-11-10 00:01:00,33.2,24.0,30.12,SSW,202,1.6,4.0,68,0.00,,,0.00,Rainwise IP-100,2013-11-10 05:01:00,
2013-11-10 00:02:00,33.5,26.0,30.12,SSW,202,0.0,4.0,68,0.00,,,0.00,Rainwise IP-100,2013-11-10 05:02:00,
2013-11-10 00:07:00,33.3,24.0,30.12,SSW,202,2.3,5.0,67,0.00,,,0.00,Rainwise IP-100,2013-11-10 05:07:00,
2013-11-10 00:12:00,33.2,24.0,30.12,SSE,157,0.0,4.0,68,0.00,,,0.00,Rainwise IP-100,2013-11-10 05:12:00,
2013-11-10 00:17:00,33.3,24.0,30.12,South,180,2.8,5.0,68,0.00,,,0.00,Rainwise IP-100,2013-11-10 05:17:00,
2013-11-10 00:22:00,33.8,26.0,30.12,SSE,157,2.6,4.0,68,0.00,,,0.00,Rainwise IP-100,2013-11-10 05:22:00,
2013-11-10 00:27:00,34.0,26.0,30.11,South,180,1.2,2.0,68,0.00,,,0.00,Rainwise IP-100,2013-11-10 05:27:00,
2013-11-10 00:32:00,33.3,24.0,30.11,South,180,1.9,2.0,69,0.00,,,0.00,Rainwise IP-100,2013-11-10 05:32:00,
2013-11-10 00:37:00,32.7,24.0,30.11,South,180,1.6,2.0,70,0.00,,,0.00,Rainwise IP-100,2013-11-10 05:37:00,
2013-11-10 00:42:00,32.6,24.0,30.11,South,180,2.6,2.6,71,0.00,,,0.00,Rainwise IP-100,2013-11-10 05:42:00,
2013-11-10 00:47:00,33.1,24.0,30.11,South,180,2.3,3.0,70,0.00,,,0.00,Rainwise IP-100,2013-11-10 05:47:00,
2013-11-10 00:52:00,33.6,26.0,30.11,South,180,2.1,4.0,69,0.00,,,0.00,Rainwise IP-100,2013-11-10 05:52:00,
2013-11-10 00:57:00,33.4,24.0,30.11,South,180,1.2,4.0,69,0.00,,,0.00,Rainwise IP-100,2013-11-10 05:57:00,
2013-11-10 01:02:00,33.1,24.0,30.11,SSW,202,2.6,3.0,71,0.00,,,0.00,Rainwise IP-100,2013-11-10 06:02:00,
2013-11-10 01:07:00,33.2,24.0,30.10,SSW,202,3.3,4.0,71,0.00,,,0.00,Rainwise IP-100,2013-11-10 06:07:00,
2013-11-10 01:12:00,33.7,26.0,30.10,SSE,157,3.0,6.0,70,0.00,,,0.00,Rainwise IP-100,2013-11-10 06:12:00,
2013-11-10 01:17:00,34.1,26.0,30.10,SSE,157,1.6,4.0,69,0.00,,,0.00,Rainwise IP-100,2013-11-10 06:17:00,
2013-11-10 01:22:00,34.2,26.0,30.10,SSE,157,1.4,2.0,69,0.00,,,0.00,Rainwise IP-100,2013-11-10 06:22:00,
2013-11-10 01:27:00,34.2,26.0,30.10,SSE,157,2.1,3.0,69,0.00,,,0.00,Rainwise IP-100,2013-11-10 06:27:00,
2013-11-10 01:32:00,34.4,26.0,30.10,SSW,202,3.5,4.0,69,0.00,,,0.00,Rainwise IP-100,2013-11-10 06:32:00,
2013-11-10 01:37:00,34.6,26.0,30.09,SSW,202,1.9,4.0,68,0.00,,,0.00,Rainwise IP-100,2013-11-10 06:37:00,
2013-11-10 01:42:00,34.8,26.0,30.09,SSW,202,1.4,3.0,68,0.00,,,0.00,Rainwise IP-100,2013-11-10 06:42:00,
2013-11-10 01:47:00,35.0,24.0,30.08,SSW,202,1.2,2.0,67,0.00,,,0.00,Rainwise IP-100,2013-11-10 06:47:00,
2013-11-10 01:52:00,35.2,24.0,30.09,SSW,202,1.2,1.2,66,0.00,,,0.00,Rainwise IP-100,2013-11-10 06:52:00,
2013-11-10 01:57:00,35.4,24.0,30.09,SSW,202,0.0,1.0,66,0.00,,,0.00,Rainwise IP-100,2013-11-10 06:57:00,
2013-11-10 02:02:00,35.5,26.0,30.08,SSW,202,0.0,1.0,66,0.00,,,0.00,Rainwise IP-100,2013-11-10 07:02:00,
2013-11-10 02:07:00,35.6,26.0,30.08,SSW,202,1.6,1.6,66,0.00,,,0.00,Rainwise IP-100,2013-11-10 07:07:00,
2013-11-10 02:12:00,35.6,26.0,30.08,SSW,202,1.9,3.0,66,0.00,,,0.00,Rainwise IP-100,2013-11-10 07:12:00,
2013-11-10 02:17:00,35.7,26.0,30.08,SSW,202,0.0,2.0,66,0.00,,,0.00,Rainwise IP-100,2013-11-10 07:17:00,
2013-11-10 02:22:00,35.7,26.0,30.08,SSW,202,0.0,0.0,66,0.00,,,0.00,Rainwise IP-100,2013-11-10 07:22:00,
2013-11-10 02:27:00,35.5,26.0,30.07,SSW,202,0.0,2.0,67,0.00,,,0.00,Rainwise IP-100,2013-11-10 07:27:00,
2013-11-10 02:32:00,35.4,26.0,30.07,SSW,202,0.0,0.0,68,0.00,,,0.00,Rainwise IP-100,2013-11-10 07:32:00,
2013-11-10 02:37:00,35.3,26.0,30.07,SSW,202,0.0,2.0,68,0.00,,,0.00,Rainwise IP-100,2013-11-10 07:37:00,
2013-11-10 02:42:00,35.2,26.0,30.06,SSW,202,2.6,4.0,69,0.00,,,0.00,Rainwise IP-100,2013-11-10 07:42:00,
2013-11-10 02:47:00,35.1,26.0,30.06,SSW,202,0.0,3.0,70,0.00,,,0.00,Rainwise IP-100,2013-11-10 07:47:00,
2013-11-10 02:52:00,35.1,26.0,30.06,SSW,202,1.6,3.0,70,0.00,,,0.00,Rainwise IP-100,2013-11-10 07:52:00,
2013-11-10 02:57:00,35.5,28.0,30.06,SE,135,1.6,4.0,70,0.00,,,0.00,Rainwise IP-100,2013-11-10 07:57:00,
2013-11-10 03:02:00,35.8,28.0,30.05,ESE,112,2.6,5.0,70,0.00,,,0.00,Rainwise IP-100,2013-11-10 08:02:00,
2013-11-10 03:07:00,35.9,28.0,30.05,SSE,157,2.8,5.0,71,0.00,,,0.00,Rainwise IP-100,2013-11-10 08:07:00,
2013-11-10 03:12:00,36.1,28.0,30.05,SSE,157,2.6,5.0,71,0.00,,,0.00,Rainwise IP-100,2013-11-10 08:12:00,
2013-11-10 03:17:00,36.2,28.0,30.04,SSW,202,6.5,6.5,71,0.00,,,0.00,Rainwise IP-100,2013-11-10 08:17:00,
2013-11-10 03:22:00,36.2,28.0,30.04,SSW,202,3.5,7.0,71,0.00,,,0.00,Rainwise IP-100,2013-11-10 08:22:00,
2013-11-10 03:27:00,36.3,28.0,30.04,South,180,2.8,6.0,71,0.00,,,0.00,Rainwise IP-100,2013-11-10 08:27:00,
2013-11-10 03:32:00,36.4,28.0,30.04,South,180,0.0,5.0,71,0.00,,,0.00,Rainwise IP-100,2013-11-10 08:32:00,
2013-11-10 03:37:00,36.4,28.0,30.03,SSE,157,3.5,6.0,71,0.00,,,0.00,Rainwise IP-100,2013-11-10 08:37:00,
2013-11-10 03:42:00,36.4,28.0,30.03,SSW,202,1.6,4.0,72,0.00,,,0.00,Rainwise IP-100,2013-11-10 08:42:00,
2013-11-10 03:47:00,36.4,28.0,30.03,SSW,202,0.0,4.0,72,0.00,,,0.00,Rainwise IP-100,2013-11-10 08:47:00,
2013-11-10 03:52:00,36.5,29.0,30.03,SSW,202,1.4,5.0,72,0.00,,,0.00,Rainwise IP-100,2013-11-10 08:52:00,
2013-11-10 03:57:00,36.5,29.0,30.02,SW,225,1.2,6.0,72,0.00,,,0.00,Rainwise IP-100,2013-11-10 08:57:00,
2013-11-10 04:02:00,36.7,29.0,30.02,SSE,157,2.1,3.0,73,0.00,,,0.00,Rainwise IP-100,2013-11-10 09:02:00,
2013-11-10 04:07:00,37.0,29.0,30.02,SE,135,0.0,4.0,73,0.00,,,0.00,Rainwise IP-100,2013-11-10 09:07:00,
2013-11-10 04:12:00,37.3,29.0,30.02,South,180,0.0,3.0,74,0.00,,,0.00,Rainwise IP-100,2013-11-10 09:12:00,
2013-11-10 04:17:00,37.3,29.0,30.02,SSW,202,1.9,2.0,74,0.00,,,0.00,Rainwise IP-100,2013-11-10 09:17:00,
2013-11-10 04:22:00,37.1,31.0,30.02,SSW,202,0.0,3.0,75,0.00,,,0.00,Rainwise IP-100,2013-11-10 09:22:00,
2013-11-10 04:27:00,37.1,31.0,30.02,SSW,202,0.0,3.0,75,0.00,,,0.00,Rainwise IP-100,2013-11-10 09:27:00,
2013-11-10 04:32:00,37.2,31.0,30.02,WNW,292,0.0,1.0,76,0.00,,,0.00,Rainwise IP-100,2013-11-10 09:32:00,
2013-11-10 04:37:00,37.1,31.0,30.01,WSW,247,0.0,5.0,76,0.00,,,0.00,Rainwise IP-100,2013-11-10 09:37:00,
2013-11-10 04:42:00,36.8,31.0,30.01,WSW,247,0.0,1.0,76,0.00,,,0.00,Rainwise IP-100,2013-11-10 09:42:00,
2013-11-10 04:47:00,37.0,31.0,30.01,WSW,247,0.0,1.0,76,0.00,,,0.00,Rainwise IP-100,2013-11-10 09:47:00,
2013-11-10 04:52:00,37.2,31.0,30.01,WSW,247,1.2,1.2,77,0.00,,,0.00,Rainwise IP-100,2013-11-10 09:52:00,
2013-11-10 04:57:00,37.3,31.0,30.01,WSW,247,1.4,2.0,77,0.00,,,0.00,Rainwise IP-100,2013-11-10 09:57:00,
2013-11-10 05:02:00,37.2,31.0,30.01,WSW,247,1.6,2.0,77,0.00,,,0.00,Rainwise IP-100,2013-11-10 10:02:00,
2013-11-10 05:07:00,37.0,31.0,30.00,SSE,157,2.6,2.6,77,0.00,,,0.00,Rainwise IP-100,2013-11-10 10:07:00,
2013-11-10 05:12:00,36.9,31.0,30.00,SSE,157,3.0,3.0,78,0.00,,,0.00,Rainwise IP-100,2013-11-10 10:12:00,
2013-11-10 05:17:00,36.7,31.0,30.00,SSE,157,2.3,5.0,78,0.00,,,0.00,Rainwise IP-100,2013-11-10 10:17:00,
2013-11-10 05:22:00,36.5,31.0,29.99,SSE,157,2.1,6.0,78,0.00,,,0.00,Rainwise IP-100,2013-11-10 10:22:00,
2013-11-10 05:27:00,36.5,31.0,29.99,South,180,1.9,2.0,79,0.00,,,0.00,Rainwise IP-100,2013-11-10 10:27:00,
2013-11-10 05:32:00,36.5,31.0,29.99,South,180,1.9,3.0,79,0.00,,,0.00,Rainwise IP-100,2013-11-10 10:32:00,
2013-11-10 05:36:00,36.6,31.0,29.99,South,180,1.2,3.0,79,0.00,,,0.00,Rainwise IP-100,2013-11-10 10:36:00,
2013-11-10 05:41:00,37.0,31.0,29.99,SSW,202,2.8,3.0,78,0.00,,,0.00,Rainwise IP-100,2013-11-10 10:41:00,
2013-11-10 05:46:00,37.5,32.0,29.98,SSE,157,5.4,8.0,78,0.00,,,0.00,Rainwise IP-100,2013-11-10 10:46:00,
2013-11-10 05:51:00,38.4,31.0,29.98,SSE,157,4.9,9.0,76,0.00,,,0.00,Rainwise IP-100,2013-11-10 10:51:00,
2013-11-10 05:56:00,39.1,32.0,29.98,SSE,157,3.5,12.0,75,0.00,,,0.00,Rainwise IP-100,2013-11-10 10:56:00,
2013-11-10 06:01:00,39.4,32.0,29.98,SSW,202,4.9,9.0,74,0.00,,,0.00,Rainwise IP-100,2013-11-10 11:01:00,
2013-11-10 06:06:00,39.5,33.0,29.98,SSE,157,5.1,8.0,74,0.00,,,0.00,Rainwise IP-100,2013-11-10 11:06:00,
2013-11-10 06:11:00,39.7,32.0,29.98,ESE,112,3.5,9.0,73,0.00,,,0.00,Rainwise IP-100,2013-11-10 11:11:00,
2013-11-10 06:16:00,40.0,32.0,29.98,South,180,4.0,9.0,73,0.00,,,0.00,Rainwise IP-100,2013-11-10 11:16:00,
2013-11-10 06:21:00,40.4,32.0,29.98,SSE,157,3.0,8.0,72,0.00,,,0.00,Rainwise IP-100,2013-11-10 11:21:00,
2013-11-10 06:26:00,40.6,33.0,29.98,SSE,157,3.7,8.0,72,0.00,,,0.00,Rainwise IP-100,2013-11-10 11:26:00,
2013-11-10 06:31:00,40.8,33.0,29.98,SSE,157,4.0,7.0,72,0.00,,,0.00,Rainwise IP-100,2013-11-10 11:31:00,
2013-11-10 06:36:00,40.9,33.0,29.98,SSE,157,7.2,7.2,72,0.00,,,0.00,Rainwise IP-100,2013-11-10 11:36:00,
2013-11-10 06:41:00,41.1,33.0,29.98,SSE,157,4.9,11.0,72,0.00,,,0.00,Rainwise IP-100,2013-11-10 11:41:00,
2013-11-10 06:46:00,41.3,33.0,29.98,ESE,112,4.2,10.0,72,0.00,,,0.00,Rainwise IP-100,2013-11-10 11:46:00,
2013-11-10 06:51:00,41.3,33.0,29.98,South,180,2.3,7.0,72,0.00,,,0.00,Rainwise IP-100,2013-11-10 11:51:00,
2013-11-10 06:56:00,41.3,33.0,29.98,SSE,157,4.9,6.0,72,0.00,,,0.00,Rainwise IP-100,2013-11-10 11:56:00,
2013-11-10 07:01:00,41.4,33.0,29.98,South,180,4.9,10.0,72,0.00,,,0.00,Rainwise IP-100,2013-11-10 12:01:00,
2013-11-10 07:06:00,41.6,35.0,29.98,SSE,157,8.2,9.0,73,0.00,,,0.00,Rainwise IP-100,2013-11-10 12:06:00,
2013-11-10 07:11:00,41.7,35.0,29.98,SSE,157,6.1,11.0,73,0.00,,,0.00,Rainwise IP-100,2013-11-10 12:11:00,
2013-11-10 07:16:00,41.6,35.0,29.97,South,180,5.1,10.0,74,0.00,,,0.00,Rainwise IP-100,2013-11-10 12:16:00,
2013-11-10 07:21:00,41.5,35.0,29.97,SSE,157,6.3,13.0,75,0.00,,,0.00,Rainwise IP-100,2013-11-10 12:21:00,
2013-11-10 07:26:00,41.4,35.0,29.97,South,180,4.2,11.0,76,0.00,,,0.00,Rainwise IP-100,2013-11-10 12:26:00,
2013-11-10 07:31:00,41.2,35.0,29.97,South,180,10.5,10.5,78,0.00,,,0.00,Rainwise IP-100,2013-11-10 12:31:00,
2013-11-10 07:36:00,41.0,36.0,29.97,SSE,157,4.2,11.0,80,0.00,,,0.00,Rainwise IP-100,2013-11-10 12:36:00,
2013-11-10 07:41:00,40.8,36.0,29.96,SSE,157,4.2,15.0,81,0.00,,,0.00,Rainwise IP-100,2013-11-10 12:41:00,
2013-11-10 07:46:00,40.4,36.0,29.96,SSE,157,7.5,11.0,83,0.00,,,0.00,Rainwise IP-100,2013-11-10 12:46:00,
2013-11-10 07:51:00,40.2,36.0,29.96,SSE,157,8.4,11.0,85,0.00,,,0.00,Rainwise IP-100,2013-11-10 12:51:00,
2013-11-10 07:56:00,40.1,37.0,29.96,South,180,13.8,13.8,86,0.00,,,0.00,Rainwise IP-100,2013-11-10 12:56:00,
2013-11-10 08:01:00,40.1,37.0,29.95,SSE,157,7.5,14.0,87,0.00,,,0.00,Rainwise IP-100,2013-11-10 13:01:00,
2013-11-10 08:06:00,40.2,37.0,29.95,SSE,157,7.0,13.0,88,0.00,,,0.00,Rainwise IP-100,2013-11-10 13:06:00,
2013-11-10 08:11:00,40.4,37.0,29.95,SE,135,4.0,12.0,89,0.00,,,0.00,Rainwise IP-100,2013-11-10 13:11:00,
2013-11-10 08:16:00,40.7,38.0,29.95,SSE,157,5.1,12.0,89,0.00,,,0.00,Rainwise IP-100,2013-11-10 13:16:00,
2013-11-10 08:21:00,40.9,38.0,29.95,SSE,157,5.6,16.0,89,0.00,,,0.00,Rainwise IP-100,2013-11-10 13:21:00,
2013-11-10 08:26:00,41.0,38.0,29.94,SSE,157,7.0,11.0,89,0.06,,,0.01,Rainwise IP-100,2013-11-10 13:26:00,
2013-11-10 08:31:00,41.1,38.0,29.94,SSE,157,12.6,12.6,89,0.06,,,0.01,Rainwise IP-100,2013-11-10 13:31:00,
2013-11-10 08:36:00,41.3,38.0,29.94,South,180,11.9,14.0,90,0.00,,,0.01,Rainwise IP-100,2013-11-10 13:36:00,
2013-11-10 08:41:00,41.4,38.0,29.93,SSE,157,8.4,13.0,90,0.00,,,0.01,Rainwise IP-100,2013-11-10 13:41:00,
2013-11-10 08:46:00,41.5,39.0,29.93,SSE,157,10.0,16.0,90,0.00,,,0.01,Rainwise IP-100,2013-11-10 13:46:00,
2013-11-10 08:51:00,41.6,39.0,29.93,SSE,157,6.3,17.0,90,0.00,,,0.01,Rainwise IP-100,2013-11-10 13:51:00,
2013-11-10 08:56:00,41.8,39.0,29.93,SSE,157,8.6,13.0,90,0.00,,,0.01,Rainwise IP-100,2013-11-10 13:56:00,
2013-11-10 09:01:00,41.9,39.0,29.92,SSE,157,6.5,13.0,90,0.00,,,0.01,Rainwise IP-100,2013-11-10 14:01:00,
2013-11-10 09:06:00,42.0,39.0,29.92,SSW,202,13.5,17.0,90,0.06,,,0.02,Rainwise IP-100,2013-11-10 14:06:00,
2013-11-10 09:11:00,42.4,39.0,29.90,SSE,157,8.9,21.0,89,0.06,,,0.02,Rainwise IP-100,2013-11-10 14:11:00,
2013-11-10 09:16:00,42.8,40.0,29.90,South,180,8.4,20.0,89,0.00,,,0.02,Rainwise IP-100,2013-11-10 14:16:00,
2013-11-10 09:21:00,43.0,40.0,29.90,SSE,157,7.5,14.0,89,0.00,,,0.02,Rainwise IP-100,2013-11-10 14:21:00,
2013-11-10 09:26:00,43.1,40.0,29.90,SSE,157,12.8,17.0,89,0.00,,,0.02,Rainwise IP-100,2013-11-10 14:26:00,
2013-11-10 09:31:00,43.3,40.0,29.90,SSE,157,8.2,20.0,90,0.00,,,0.02,Rainwise IP-100,2013-11-10 14:31:00,
2013-11-10 09:36:00,43.4,40.0,29.89,SSW,202,11.0,16.0,90,0.00,,,0.02,Rainwise IP-100,2013-11-10 14:36:00,
2013-11-10 09:41:00,43.5,41.0,29.89,SSE,157,12.1,15.0,90,0.00,,,0.02,Rainwise IP-100,2013-11-10 14:41:00,
2013-11-10 09:46:00,43.6,41.0,29.88,SE,135,11.0,16.0,90,0.00,,,0.02,Rainwise IP-100,2013-11-10 14:46:00,
2013-11-10 09:51:00,43.8,41.0,29.88,SSE,157,5.6,14.0,89,0.00,,,0.02,Rainwise IP-100,2013-11-10 14:51:00,
2013-11-10 09:56:00,44.0,41.0,29.88,SSE,157,9.8,18.0,89,0.00,,,0.02,Rainwise IP-100,2013-11-10 14:56:00,
2013-11-10 10:01:00,44.2,41.0,29.88,SSW,202,18.7,25.0,89,0.00,,,0.02,Rainwise IP-100,2013-11-10 15:01:00,
2013-11-10 10:06:00,44.5,42.0,29.87,South,180,11.0,25.0,89,0.00,,,0.02,Rainwise IP-100,2013-11-10 15:06:00,
2013-11-10 10:11:00,44.6,42.0,29.87,SSE,157,16.6,22.0,89,0.00,,,0.02,Rainwise IP-100,2013-11-10 15:11:00,
2013-11-10 10:16:00,44.7,42.0,29.86,South,180,10.3,23.0,89,0.00,,,0.02,Rainwise IP-100,2013-11-10 15:16:00,
2013-11-10 10:21:00,44.9,42.0,29.86,SSW,202,15.4,21.0,89,0.00,,,0.02,Rainwise IP-100,2013-11-10 15:21:00,
2013-11-10 10:26:00,45.0,42.0,29.86,SSW,202,12.1,16.0,89,0.00,,,0.02,Rainwise IP-100,2013-11-10 15:26:00,
2013-11-10 10:31:00,45.0,42.0,29.85,SSE,157,8.9,21.0,90,0.00,,,0.02,Rainwise IP-100,2013-11-10 15:31:00,
2013-11-10 10:36:00,44.9,42.0,29.85,SSE,157,9.3,24.0,91,0.00,,,0.02,Rainwise IP-100,2013-11-10 15:36:00,
2013-11-10 10:41:00,44.8,42.0,29.84,South,180,7.5,25.0,91,0.00,,,0.02,Rainwise IP-100,2013-11-10 15:41:00,
2013-11-10 10:46:00,44.8,43.0,29.84,South,180,10.7,18.0,92,0.06,,,0.03,Rainwise IP-100,2013-11-10 15:46:00,
2013-11-10 10:51:00,44.9,43.0,29.83,SSE,157,9.8,23.0,92,0.12,,,0.04,Rainwise IP-100,2013-11-10 15:51:00,
2013-11-10 10:56:00,45.0,43.0,29.82,SSE,157,15.4,23.0,93,0.12,,,0.05,Rainwise IP-100,2013-11-10 15:56:00,
2013-11-10 11:01:00,45.0,43.0,29.82,SSE,157,9.6,23.0,93,0.06,,,0.05,Rainwise IP-100,2013-11-10 16:01:00,
2013-11-10 11:06:00,45.1,43.0,29.81,South,180,11.0,23.0,94,0.00,,,0.05,Rainwise IP-100,2013-11-10 16:06:00,
2013-11-10 11:11:00,45.2,43.0,29.82,SSE,157,15.9,28.0,94,0.00,,,0.05,Rainwise IP-100,2013-11-10 16:11:00,
2013-11-10 11:16:00,45.4,43.0,29.80,South,180,14.2,24.0,94,0.00,,,0.05,Rainwise IP-100,2013-11-10 16:16:00,
2013-11-10 11:21:00,45.5,44.0,29.81,SSW,202,14.0,21.0,94,0.00,,,0.05,Rainwise IP-100,2013-11-10 16:21:00,
2013-11-10 11:26:00,45.5,44.0,29.80,SSE,157,11.9,26.0,94,0.00,,,0.05,Rainwise IP-100,2013-11-10 16:26:00,
2013-11-10 11:31:00,45.6,44.0,29.81,SSW,202,14.7,24.0,94,0.06,,,0.06,Rainwise IP-100,2013-11-10 16:31:00,
2013-11-10 11:36:00,45.5,44.0,29.80,WSW,247,13.3,19.0,93,0.06,,,0.06,Rainwise IP-100,2013-11-10 16:36:00,
2013-11-10 11:41:00,45.1,43.0,29.80,SSW,202,11.2,14.0,92,0.06,,,0.07,Rainwise IP-100,2013-11-10 16:41:00,
2013-11-10 11:46:00,44.7,43.0,29.80,WSW,247,3.0,14.0,92,0.06,,,0.07,Rainwise IP-100,2013-11-10 16:46:00,
2013-11-10 11:51:00,44.7,43.0,29.79,WSW,247,2.3,10.0,93,0.00,,,0.07,Rainwise IP-100,2013-11-10 16:51:00,
2013-11-10 11:56:00,45.1,43.0,29.80,SW,225,12.6,12.6,93,0.00,,,0.07,Rainwise IP-100,2013-11-10 16:56:00,
2013-11-10 12:01:00,45.4,43.0,29.80,WSW,247,4.4,12.0,93,0.00,,,0.07,Rainwise IP-100,2013-11-10 17:01:00,
2013-11-10 12:06:00,45.4,43.0,29.79,WSW,247,1.9,11.0,93,0.00,,,0.07,Rainwise IP-100,2013-11-10 17:06:00,
2013-11-10 12:11:00,45.7,44.0,29.79,WSW,247,4.4,9.0,93,0.00,,,0.07,Rainwise IP-100,2013-11-10 17:11:00,
2013-11-10 12:16:00,46.3,44.0,29.80,WSW,247,6.1,11.0,93,0.00,,,0.07,Rainwise IP-100,2013-11-10 17:16:00,
2013-11-10 12:21:00,46.6,44.0,29.79,West,270,7.5,10.0,92,0.00,,,0.07,Rainwise IP-100,2013-11-10 17:21:00,
2013-11-10 12:26:00,47.0,44.0,29.79,WNW,292,2.8,9.0,91,0.00,,,0.07,Rainwise IP-100,2013-11-10 17:26:00,
2013-11-10 12:31:00,47.4,45.0,29.79,WSW,247,2.3,9.0,90,0.00,,,0.07,Rainwise IP-100,2013-11-10 17:31:00,
2013-11-10 12:36:00,47.3,43.0,29.79,WSW,247,10.0,11.0,88,0.00,,,0.07,Rainwise IP-100,2013-11-10 17:36:00,
2013-11-10 12:41:00,47.0,43.0,29.79,WSW,247,3.7,11.0,87,0.00,,,0.07,Rainwise IP-100,2013-11-10 17:41:00,
2013-11-10 12:46:00,46.7,43.0,29.79,SSW,202,2.3,9.0,87,0.00,,,0.07,Rainwise IP-100,2013-11-10 17:46:00,
2013-11-10 12:51:00,46.6,43.0,29.78,WNW,292,0.0,9.0,87,0.00,,,0.07,Rainwise IP-100,2013-11-10 17:51:00,
2013-11-10 12:56:00,46.5,43.0,29.78,WSW,247,5.8,8.0,88,0.00,,,0.07,Rainwise IP-100,2013-11-10 17:56:00,
2013-11-10 13:01:00,46.4,42.0,29.78,SSW,202,2.1,7.0,88,0.00,,,0.07,Rainwise IP-100,2013-11-10 18:01:00,
2013-11-10 13:06:00,46.4,42.0,29.77,WSW,247,1.9,5.0,88,0.00,,,0.07,Rainwise IP-100,2013-11-10 18:06:00,
2013-11-10 13:11:00,46.6,43.0,29.78,WSW,247,1.2,6.0,88,0.00,,,0.07,Rainwise IP-100,2013-11-10 18:11:00,
2013-11-10 13:16:00,47.3,43.0,29.78,WSW,247,2.1,5.0,88,0.00,,,0.07,Rainwise IP-100,2013-11-10 18:16:00,
2013-11-10 13:21:00,48.0,44.0,29.77,SSW,202,3.7,7.0,86,0.00,,,0.07,Rainwise IP-100,2013-11-10 18:21:00,
2013-11-10 13:26:00,47.9,44.0,29.77,West,270,3.0,8.0,84,0.00,,,0.07,Rainwise IP-100,2013-11-10 18:26:00,
2013-11-10 13:31:00,47.5,43.0,29.77,WSW,247,2.8,7.0,84,0.00,,,0.07,Rainwise IP-100,2013-11-10 18:31:00,
2013-11-10 13:36:00,47.4,43.0,29.77,SSW,202,3.7,5.0,84,0.00,,,0.07,Rainwise IP-100,2013-11-10 18:36:00,
2013-11-10 13:41:00,47.7,42.0,29.77,WSW,247,1.9,7.0,83,0.00,,,0.07,Rainwise IP-100,2013-11-10 18:41:00,
2013-11-10 13:46:00,47.7,42.0,29.77,SSW,202,1.2,6.0,82,0.00,,,0.07,Rainwise IP-100,2013-11-10 18:46:00,
2013-11-10 13:51:00,47.6,42.0,29.76,SSW,202,3.7,7.0,81,0.00,,,0.07,Rainwise IP-100,2013-11-10 18:51:00,
2013-11-10 13:56:00,47.4,42.0,29.76,WSW,247,1.6,6.0,82,0.00,,,0.07,Rainwise IP-100,2013-11-10 18:56:00,
2013-11-10 14:01:00,47.2,41.0,29.76,WSW,247,2.3,5.0,82,0.00,,,0.07,Rainwise IP-100,2013-11-10 19:01:00,
2013-11-10 14:06:00,47.1,41.0,29.76,West,270,4.2,6.0,82,0.00,,,0.07,Rainwise IP-100,2013-11-10 19:06:00,
2013-11-10 14:11:00,47.0,42.0,29.76,WSW,247,1.4,7.0,83,0.00,,,0.07,Rainwise IP-100,2013-11-10 19:11:00,
2013-11-10 14:16:00,46.9,42.0,29.76,WNW,292,2.3,5.0,83,0.00,,,0.07,Rainwise IP-100,2013-11-10 19:16:00,
2013-11-10 14:21:00,46.8,42.0,29.75,WNW,292,1.9,4.0,84,0.00,,,0.07,Rainwise IP-100,2013-11-10 19:21:00,
2013-11-10 14:26:00,46.6,42.0,29.75,South,180,1.6,3.0,84,0.00,,,0.07,Rainwise IP-100,2013-11-10 19:26:00,
2013-11-10 14:31:00,46.5,42.0,29.75,West,270,0.0,2.0,84,0.00,,,0.07,Rainwise IP-100,2013-11-10 19:31:00,
2013-11-10 14:36:00,46.5,42.0,29.75,West,270,0.0,3.0,84,0.00,,,0.07,Rainwise IP-100,2013-11-10 19:36:00,
2013-11-10 14:41:00,46.4,41.0,29.75,WSW,247,1.4,2.0,84,0.00,,,0.07,Rainwise IP-100,2013-11-10 19:41:00,
2013-11-10 14:46:00,46.4,41.0,29.75,WSW,247,0.0,2.0,85,0.00,,,0.07,Rainwise IP-100,2013-11-10 19:46:00,
2013-11-10 14:51:00,46.4,41.0,29.75,WSW,247,1.9,2.0,85,0.00,,,0.07,Rainwise IP-100,2013-11-10 19:51:00,
2013-11-10 14:56:00,46.4,41.0,29.76,WSW,247,1.9,2.0,85,0.00,,,0.07,Rainwise IP-100,2013-11-10 19:56:00,
2013-11-10 15:01:00,46.4,41.0,29.76,WSW,247,3.7,4.0,85,0.00,,,0.07,Rainwise IP-100,2013-11-10 20:01:00,
2013-11-10 15:06:00,46.4,41.0,29.76,WNW,292,0.0,4.0,85,0.00,,,0.07,Rainwise IP-100,2013-11-10 20:06:00,
2013-11-10 15:11:00,46.4,41.0,29.76,WNW,292,0.0,2.0,85,0.00,,,0.07,Rainwise IP-100,2013-11-10 20:11:00,
2013-11-10 15:16:00,46.3,42.0,29.76,WNW,292,0.0,2.0,86,0.00,,,0.07,Rainwise IP-100,2013-11-10 20:16:00,
2013-11-10 15:21:00,46.2,42.0,29.76,WSW,247,2.1,5.0,87,0.00,,,0.07,Rainwise IP-100,2013-11-10 20:21:00,
2013-11-10 15:26:00,46.0,42.0,29.75,NNW,337,2.8,3.0,87,0.00,,,0.07,Rainwise IP-100,2013-11-10 20:26:00,
2013-11-10 15:31:00,45.8,42.0,29.75,WSW,247,1.9,3.0,88,0.00,,,0.07,Rainwise IP-100,2013-11-10 20:31:00,
2013-11-10 15:36:00,45.6,42.0,29.76,WNW,292,3.5,4.0,88,0.00,,,0.07,Rainwise IP-100,2013-11-10 20:36:00,
2013-11-10 15:41:00,45.4,42.0,29.75,NNW,337,1.2,3.0,89,0.06,,,0.08,Rainwise IP-100,2013-11-10 20:41:00,
2013-11-10 15:46:00,45.2,42.0,29.75,NNW,337,0.0,1.0,90,0.06,,,0.08,Rainwise IP-100,2013-11-10 20:46:00,
2013-11-10 15:51:00,44.9,42.0,29.75,WNW,292,0.0,3.0,91,0.00,,,0.08,Rainwise IP-100,2013-11-10 20:51:00,
2013-11-10 15:56:00,44.8,42.0,29.75,WNW,292,1.4,1.4,91,0.00,,,0.08,Rainwise IP-100,2013-11-10 20:56:00,
2013-11-10 16:01:00,44.7,43.0,29.75,WNW,292,2.1,3.0,92,0.00,,,0.08,Rainwise IP-100,2013-11-10 21:01:00,
2013-11-10 16:06:00,44.5,43.0,29.74,WNW,292,0.0,2.0,93,0.00,,,0.08,Rainwise IP-100,2013-11-10 21:06:00,
2013-11-10 16:11:00,44.4,42.0,29.74,WNW,292,0.0,2.0,93,0.00,,,0.08,Rainwise IP-100,2013-11-10 21:11:00,
2013-11-10 16:16:00,44.3,42.0,29.74,WNW,292,0.0,1.0,94,0.00,,,0.08,Rainwise IP-100,2013-11-10 21:16:00,
2013-11-10 16:21:00,44.2,42.0,29.74,WNW,292,0.0,1.0,94,0.00,,,0.08,Rainwise IP-100,2013-11-10 21:21:00,
2013-11-10 16:26:00,44.1,42.0,29.74,WNW,292,1.4,1.4,94,0.00,,,0.08,Rainwise IP-100,2013-11-10 21:26:00,
2013-11-10 16:31:00,44.0,42.0,29.74,WNW,292,1.9,2.0,94,0.00,,,0.08,Rainwise IP-100,2013-11-10 21:31:00,
2013-11-10 16:36:00,44.0,43.0,29.74,WNW,292,1.2,3.0,95,0.00,,,0.08,Rainwise IP-100,2013-11-10 21:36:00,
2013-11-10 16:41:00,43.9,43.0,29.74,WNW,292,2.6,2.6,95,0.00,,,0.08,Rainwise IP-100,2013-11-10 21:41:00,
2013-11-10 16:46:00,43.8,43.0,29.74,NW,315,1.2,3.0,95,0.00,,,0.08,Rainwise IP-100,2013-11-10 21:46:00,
2013-11-10 16:51:00,43.8,43.0,29.74,WNW,292,0.0,2.0,96,0.00,,,0.08,Rainwise IP-100,2013-11-10 21:51:00,
2013-11-10 16:56:00,43.8,43.0,29.74,WNW,292,0.0,2.0,96,0.00,,,0.08,Rainwise IP-100,2013-11-10 21:56:00,
2013-11-10 17:01:00,43.7,43.0,29.74,WNW,292,1.2,3.0,96,0.00,,,0.08,Rainwise IP-100,2013-11-10 22:01:00,
2013-11-10 17:06:00,43.7,43.0,29.74,WNW,292,1.4,2.0,96,0.00,,,0.08,Rainwise IP-100,2013-11-10 22:06:00,
2013-11-10 17:11:00,43.6,43.0,29.74,WNW,292,1.2,3.0,96,0.00,,,0.08,Rainwise IP-100,2013-11-10 22:11:00,
2013-11-10 17:16:00,43.5,43.0,29.74,West,270,2.1,2.1,96,0.00,,,0.08,Rainwise IP-100,2013-11-10 22:16:00,
2013-11-10 17:21:00,43.4,42.0,29.74,WNW,292,2.1,3.0,96,0.00,,,0.08,Rainwise IP-100,2013-11-10 22:21:00,
2013-11-10 17:26:00,43.4,42.0,29.74,WNW,292,1.2,4.0,97,0.00,,,0.08,Rainwise IP-100,2013-11-10 22:26:00,
2013-11-10 17:31:00,43.3,42.0,29.75,WNW,292,2.3,4.0,97,0.00,,,0.08,Rainwise IP-100,2013-11-10 22:31:00,
2013-11-10 17:36:00,43.3,42.0,29.75,WNW,292,0.0,5.0,97,0.00,,,0.08,Rainwise IP-100,2013-11-10 22:36:00,
2013-11-10 17:41:00,43.2,42.0,29.74,WNW,292,1.9,4.0,97,0.00,,,0.08,Rainwise IP-100,2013-11-10 22:41:00,
2013-11-10 17:46:00,43.1,42.0,29.74,NW,315,0.0,2.0,97,0.00,,,0.08,Rainwise IP-100,2013-11-10 22:46:00,
2013-11-10 17:51:00,43.1,42.0,29.74,WNW,292,0.0,3.0,97,0.00,,,0.08,Rainwise IP-100,2013-11-10 22:51:00,
2013-11-10 17:56:00,43.0,42.0,29.74,WNW,292,1.4,2.0,97,0.00,,,0.08,Rainwise IP-100,2013-11-10 22:56:00,
2013-11-10 18:01:00,42.9,42.0,29.74,WNW,292,0.0,1.0,97,0.00,,,0.08,Rainwise IP-100,2013-11-10 23:01:00,
2013-11-10 18:06:00,42.8,42.0,29.74,WNW,292,1.9,1.9,97,0.00,,,0.08,Rainwise IP-100,2013-11-10 23:06:00,
2013-11-10 18:11:00,42.7,42.0,29.74,WNW,292,1.9,2.0,97,0.00,,,0.08,Rainwise IP-100,2013-11-10 23:11:00,
2013-11-10 18:16:00,42.6,42.0,29.74,NNW,337,6.1,6.1,97,0.00,,,0.08,Rainwise IP-100,2013-11-10 23:16:00,
2013-11-10 18:21:00,42.4,41.0,29.75,NW,315,2.3,7.0,98,0.00,,,0.08,Rainwise IP-100,2013-11-10 23:21:00,
2013-11-10 18:26:00,42.3,41.0,29.75,WNW,292,1.6,7.0,98,0.00,,,0.08,Rainwise IP-100,2013-11-10 23:26:00,
2013-11-10 18:31:00,42.2,41.0,29.75,WNW,292,1.2,2.0,98,0.00,,,0.08,Rainwise IP-100,2013-11-10 23:31:00,
2013-11-10 18:36:00,42.1,41.0,29.75,NNW,337,3.3,5.0,98,0.00,,,0.08,Rainwise IP-100,2013-11-10 23:36:00,
2013-11-10 18:41:00,42.0,41.0,29.74,WNW,292,1.9,4.0,98,0.00,,,0.08,Rainwise IP-100,2013-11-10 23:41:00,
2013-11-10 18:46:00,41.9,41.0,29.74,WNW,292,1.6,5.0,98,0.00,,,0.08,Rainwise IP-100,2013-11-10 23:46:00,
2013-11-10 18:51:00,41.7,41.0,29.74,NNW,337,2.1,5.0,98,0.00,,,0.08,Rainwise IP-100,2013-11-10 23:51:00,
2013-11-10 18:56:00,41.6,41.0,29.74,NNW,337,0.0,4.0,98,0.00,,,0.08,Rainwise IP-100,2013-11-10 23:56:00,
2013-11-10 19:01:00,41.5,41.0,29.74,NW,315,0.0,3.0,98,0.00,,,0.08,Rainwise IP-100,2013-11-11 00:01:00,
2013-11-10 19:06:00,41.4,40.0,29.74,WNW,292,0.0,4.0,98,0.00,,,0.08,Rainwise IP-100,2013-11-11 00:06:00,
2013-11-10 19:11:00,41.4,40.0,29.73,NNW,337,0.0,4.0,98,0.00,,,0.08,Rainwise IP-100,2013-11-11 00:11:00,
2013-11-10 19:16:00,41.2,40.0,29.73,WNW,292,4.9,4.9,98,0.00,,,0.08,Rainwise IP-100,2013-11-11 00:16:00,
2013-11-10 19:21:00,41.1,40.0,29.73,NW,315,1.6,4.0,98,0.00,,,0.08,Rainwise IP-100,2013-11-11 00:21:00,
2013-11-10 19:26:00,41.1,40.0,29.73,NW,315,3.0,3.0,98,0.00,,,0.08,Rainwise IP-100,2013-11-11 00:26:00,
2013-11-10 19:31:00,41.0,40.0,29.73,WNW,292,2.3,3.0,98,0.00,,,0.08,Rainwise IP-100,2013-11-11 00:31:00,
2013-11-10 19:36:00,40.9,40.0,29.73,WNW,292,1.6,3.0,98,0.00,,,0.08,Rainwise IP-100,2013-11-11 00:36:00,
2013-11-10 19:41:00,40.8,40.0,29.74,WNW,292,4.7,5.0,98,0.00,,,0.08,Rainwise IP-100,2013-11-11 00:41:00,
2013-11-10 19:46:00,40.7,40.0,29.73,West,270,3.5,4.0,98,0.00,,,0.08,Rainwise IP-100,2013-11-11 00:46:00,
2013-11-10 19:51:00,40.7,40.0,29.73,WSW,247,3.0,5.0,98,0.00,,,0.08,Rainwise IP-100,2013-11-11 00:51:00,
2013-11-10 19:56:00,40.6,40.0,29.73,WNW,292,2.1,6.0,98,0.00,,,0.08,Rainwise IP-100,2013-11-11 00:56:00,
2013-11-10 20:01:00,40.5,40.0,29.73,NW,315,3.3,5.0,98,0.00,,,0.08,Rainwise IP-100,2013-11-11 01:01:00,
2013-11-10 20:06:00,40.4,40.0,29.74,WNW,292,2.8,5.0,98,0.00,,,0.08,Rainwise IP-100,2013-11-11 01:06:00,
2013-11-10 20:11:00,40.2,40.0,29.74,WNW,292,2.1,4.0,98,0.00,,,0.08,Rainwise IP-100,2013-11-11 01:11:00,
2013-11-10 20:16:00,40.1,40.0,29.74,WNW,292,0.0,4.0,98,0.00,,,0.08,Rainwise IP-100,2013-11-11 01:16:00,
2013-11-10 20:21:00,39.9,40.0,29.74,WNW,292,2.1,4.0,98,0.00,,,0.08,Rainwise IP-100,2013-11-11 01:21:00,
2013-11-10 20:26:00,39.7,40.0,29.74,WNW,292,3.7,3.7,98,0.00,,,0.08,Rainwise IP-100,2013-11-11 01:26:00,
2013-11-10 20:31:00,39.6,40.0,29.74,WNW,292,2.6,5.0,98,0.00,,,0.08,Rainwise IP-100,2013-11-11 01:31:00,
2013-11-10 20:36:00,39.6,40.0,29.74,WNW,292,3.0,6.0,98,0.00,,,0.08,Rainwise IP-100,2013-11-11 01:36:00,
2013-11-10 20:41:00,39.6,40.0,29.74,West,270,0.0,5.0,98,0.00,,,0.08,Rainwise IP-100,2013-11-11 01:41:00,
2013-11-10 20:46:00,39.7,40.0,29.74,WNW,292,4.7,5.0,98,0.00,,,0.08,Rainwise IP-100,2013-11-11 01:46:00,
2013-11-10 20:51:00,39.7,40.0,29.73,WNW,292,2.1,6.0,98,0.00,,,0.08,Rainwise IP-100,2013-11-11 01:51:00,
2013-11-10 20:56:00,39.7,40.0,29.73,NNW,337,4.2,7.0,98,0.00,,,0.08,Rainwise IP-100,2013-11-11 01:56:00,
2013-11-10 21:01:00,39.8,40.0,29.73,WNW,292,1.4,6.0,98,0.00,,,0.08,Rainwise IP-100,2013-11-11 02:01:00,
2013-11-10 21:06:00,39.8,40.0,29.73,NW,315,4.9,6.0,98,0.00,,,0.08,Rainwise IP-100,2013-11-11 02:06:00,
2013-11-10 21:11:00,39.8,40.0,29.73,NNW,337,2.3,7.0,98,0.00,,,0.08,Rainwise IP-100,2013-11-11 02:11:00,
2013-11-10 21:16:00,39.8,40.0,29.73,WNW,292,3.7,6.0,98,0.00,,,0.08,Rainwise IP-100,2013-11-11 02:16:00,
2013-11-10 21:21:00,39.7,40.0,29.73,WNW,292,2.1,4.0,98,0.00,,,0.08,Rainwise IP-100,2013-11-11 02:21:00,
2013-11-10 21:26:00,39.5,40.0,29.73,WNW,292,1.6,5.0,98,0.00,,,0.08,Rainwise IP-100,2013-11-11 02:26:00,
2013-11-10 21:31:00,39.4,39.0,29.73,NNW,337,4.4,4.4,98,0.00,,,0.08,Rainwise IP-100,2013-11-11 02:31:00,
2013-11-10 21:36:00,39.4,39.0,29.73,NNW,337,4.2,8.0,98,0.00,,,0.08,Rainwise IP-100,2013-11-11 02:36:00,
2013-11-10 21:41:00,39.4,39.0,29.73,NNW,337,4.0,6.0,98,0.00,,,0.08,Rainwise IP-100,2013-11-11 02:41:00,
2013-11-10 21:46:00,39.4,39.0,29.73,WNW,292,3.7,6.0,98,0.00,,,0.08,Rainwise IP-100,2013-11-11 02:46:00,
2013-11-10 21:51:00,39.3,39.0,29.73,NNW,337,4.4,8.0,98,0.00,,,0.08,Rainwise IP-100,2013-11-11 02:51:00,
2013-11-10 21:56:00,39.2,39.0,29.72,WNW,292,3.3,7.0,98,0.00,,,0.08,Rainwise IP-100,2013-11-11 02:56:00,
2013-11-10 22:01:00,39.1,39.0,29.72,WNW,292,1.4,4.0,98,0.00,,,0.08,Rainwise IP-100,2013-11-11 03:01:00,
2013-11-10 22:06:00,38.9,39.0,29.73,WSW,247,0.0,4.0,98,0.00,,,0.08,Rainwise IP-100,2013-11-11 03:06:00,
2013-11-10 22:11:00,38.6,39.0,29.72,NNW,337,2.1,3.0,98,0.00,,,0.08,Rainwise IP-100,2013-11-11 03:11:00,
2013-11-10 22:16:00,38.4,38.0,29.72,NW,315,1.6,3.0,98,0.00,,,0.08,Rainwise IP-100,2013-11-11 03:16:00,
2013-11-10 22:21:00,38.3,38.0,29.72,NW,315,2.6,4.0,98,0.00,,,0.08,Rainwise IP-100,2013-11-11 03:21:00,
2013-11-10 22:26:00,38.3,38.0,29.72,NNW,337,1.9,5.0,99,0.00,,,0.08,Rainwise IP-100,2013-11-11 03:26:00,
2013-11-10 22:31:00,38.3,38.0,29.72,NW,315,2.1,4.0,99,0.00,,,0.08,Rainwise IP-100,2013-11-11 03:31:00,
2013-11-10 22:36:00,38.2,38.0,29.72,WNW,292,1.9,3.0,99,0.00,,,0.08,Rainwise IP-100,2013-11-11 03:36:00,
2013-11-10 22:41:00,38.1,38.0,29.72,WNW,292,1.4,5.0,99,0.00,,,0.08,Rainwise IP-100,2013-11-11 03:41:00,
2013-11-10 22:46:00,37.8,38.0,29.72,NW,315,1.9,3.0,99,0.00,,,0.08,Rainwise IP-100,2013-11-11 03:46:00,
2013-11-10 22:51:00,37.7,38.0,29.72,NW,315,3.3,5.0,99,0.00,,,0.08,Rainwise IP-100,2013-11-11 03:51:00,
2013-11-10 22:56:00,37.7,38.0,29.72,NNW,337,0.0,4.0,99,0.00,,,0.08,Rainwise IP-100,2013-11-11 03:56:00,
2013-11-10 23:01:00,37.7,38.0,29.72,WNW,292,1.9,5.0,100,0.00,,,0.08,Rainwise IP-100,2013-11-11 04:01:00,
2013-11-10 23:06:00,37.7,38.0,29.72,NNW,337,2.8,4.0,100,0.00,,,0.08,Rainwise IP-100,2013-11-11 04:06:00,
2013-11-10 23:11:00,37.9,38.0,29.72,WNW,292,2.8,4.0,100,0.00,,,0.08,Rainwise IP-100,2013-11-11 04:11:00,
2013-11-10 23:16:00,38.1,38.0,29.72,NNW,337,1.2,7.0,100,0.00,,,0.08,Rainwise IP-100,2013-11-11 04:16:00,
2013-11-10 23:21:00,38.2,38.0,29.72,WNW,292,5.6,9.0,100,0.00,,,0.08,Rainwise IP-100,2013-11-11 04:21:00,
2013-11-10 23:26:00,38.3,38.0,29.72,NNW,337,3.3,7.0,99,0.00,,,0.08,Rainwise IP-100,2013-11-11 04:26:00,
2013-11-10 23:31:00,38.3,38.0,29.72,WNW,292,3.5,7.0,99,0.00,,,0.08,Rainwise IP-100,2013-11-11 04:31:00,
2013-11-10 23:36:00,38.3,38.0,29.72,NNW,337,2.3,6.0,99,0.00,,,0.08,Rainwise IP-100,2013-11-11 04:36:00,
2013-11-10 23:41:00,38.3,38.0,29.72,WNW,292,4.7,6.0,99,0.00,,,0.08,Rainwise IP-100,2013-11-11 04:41:00,
2013-11-10 23:46:00,38.3,38.0,29.72,WNW,292,4.2,9.0,99,0.00,,,0.08,Rainwise IP-100,2013-11-11 04:46:00,
2013-11-10 23:51:00,38.3,38.0,29.73,NNW,337,3.0,7.0,99,0.00,,,0.08,Rainwise IP-100,2013-11-11 04:51:00,
2013-11-10 23:56:00,38.3,38.0,29.73,NNW,337,4.0,7.0,99,0.00,,,0.08,Rainwise IP-100,2013-11-11 04:56:00,